Time,TemperatureF,DewpointF,PressureIn,WindDirection,WindDirectionDegrees,WindSpeedMPH,WindSpeedGustMPH,Humidity,HourlyPrecipIn,Conditions,Clouds,dailyrainin,SolarRadiationWatts/m^2,SoftwareType,DateUTC
2013-04-30 00:01:00,26.0,18.0,-100.00,NNW,327,1.0,3.0,72,0.00,,,0.07,0.000000,,2013-04-30 07:01:00,
2013-04-30 00:11:00,26.0,18.0,-100.00,NNW,327,1.0,3.0,72,0.00,,,0.07,0.000000,,2013-04-30 07:11:00,
2013-04-30 00:21:00,26.0,18.0,-100.00,NNW,327,1.0,3.0,72,0.00,,,0.07,0.000000,,2013-04-30 07:21:00,
2013-04-30 00:31:00,26.0,18.0,-100.00,NNW,327,1.0,3.0,72,0.00,,,0.07,0.000000,,2013-04-30 07:31:00,
2013-04-30 00:52:00,25.0,19.0,-100.00,NNW,327,0.0,2.0,77,0.00,,,0.07,0.000000,,2013-04-30 07:52:00,
2013-04-30 01:02:00,25.0,19.0,-100.00,NNW,327,0.0,2.0,77,0.00,,,0.07,0.000000,,2013-04-30 08:02:00,
2013-04-30 01:52:00,25.0,19.0,-100.00,NNW,327,0.0,3.0,77,-99.99,,,0.05,0.000000,,2013-04-30 08:52:00,
2013-04-30 02:01:00,25.0,19.0,-100.00,NNW,327,0.0,3.0,77,-99.99,,,0.05,0.000000,,2013-04-30 09:01:00,
2013-04-30 02:32:00,25.0,19.0,-100.00,NNW,327,0.0,3.0,77,-99.99,,,0.05,0.000000,,2013-04-30 09:32:00,
2013-04-30 03:03:00,24.0,18.0,-100.00,NNW,327,1.0,2.0,77,0.00,,,0.04,0.000000,,2013-04-30 10:03:00,
2013-04-30 03:11:00,24.0,18.0,-100.00,NNW,327,1.0,2.0,77,0.00,,,0.04,0.000000,,2013-04-30 10:11:00,
2013-04-30 03:22:00,24.0,18.0,-100.00,NNW,327,1.0,2.0,77,0.00,,,0.04,0.000000,,2013-04-30 10:22:00,
2013-04-30 03:32:00,24.0,18.0,-100.00,NNW,327,1.0,2.0,77,0.00,,,0.04,0.000000,,2013-04-30 10:32:00,
2013-04-30 04:01:00,23.0,17.0,-100.00,NNW,327,1.0,2.0,78,0.00,,,0.02,0.000000,,2013-04-30 11:01:00,
2013-04-30 04:11:00,23.0,17.0,-100.00,NNW,327,1.0,2.0,78,0.00,,,0.02,0.000000,,2013-04-30 11:11:00,
2013-04-30 04:21:00,23.0,17.0,-100.00,NNW,327,1.0,2.0,78,0.00,,,0.02,0.000000,,2013-04-30 11:21:00,
2013-04-30 04:31:00,23.0,17.0,-100.00,NNW,327,1.0,2.0,78,0.00,,,0.02,0.000000,,2013-04-30 11:31:00,
2013-04-30 07:02:00,25.0,15.0,-100.00,NNW,327,2.0,11.0,64,-99.99,,,0.01,9.000000,,2013-04-30 14:02:00,
2013-04-30 07:11:00,25.0,15.0,-100.00,NNW,327,2.0,11.0,64,-99.99,,,0.01,9.000000,,2013-04-30 14:11:00,
2013-04-30 07:52:00,24.0,16.0,-100.00,NNW,327,1.0,8.0,71,0.00,,,0.01,23.000000,,2013-04-30 14:52:00,
2013-04-30 08:01:00,24.0,16.0,-100.00,NNW,327,1.0,8.0,71,0.00,,,0.01,23.000000,,2013-04-30 15:01:00,
2013-04-30 08:11:00,24.0,16.0,-100.00,NNW,327,1.0,8.0,71,0.00,,,0.01,23.000000,,2013-04-30 15:11:00,
2013-04-30 08:21:00,24.0,16.0,-100.00,NNW,327,1.0,8.0,71,0.00,,,0.01,23.000000,,2013-04-30 15:21:00,
2013-04-30 08:32:00,24.0,16.0,-100.00,NNW,327,1.0,8.0,71,0.00,,,0.01,23.000000,,2013-04-30 15:32:00,
2013-04-30 08:52:00,28.0,17.0,-100.00,NNW,327,2.0,6.0,63,0.00,,,0.01,33.000000,,2013-04-30 15:52:00,
2013-04-30 09:02:00,28.0,17.0,-100.00,NNW,327,2.0,6.0,63,0.00,,,0.01,33.000000,,2013-04-30 16:02:00,
2013-04-30 09:12:00,28.0,17.0,-100.00,NNW,327,2.0,6.0,63,0.00,,,0.01,33.000000,,2013-04-30 16:12:00,
2013-04-30 09:22:00,28.0,17.0,-100.00,NNW,327,2.0,6.0,63,0.00,,,0.01,33.000000,,2013-04-30 16:22:00,
2013-04-30 09:32:00,28.0,17.0,-100.00,NNW,327,2.0,6.0,63,0.00,,,0.01,33.000000,,2013-04-30 16:32:00,
2013-04-30 09:52:00,30.0,15.0,-100.00,NNW,327,3.0,10.0,54,-99.99,,,0.00,204.000000,,2013-04-30 16:52:00,
2013-04-30 10:02:00,30.0,15.0,-100.00,NNW,327,3.0,10.0,54,-99.99,,,0.00,204.000000,,2013-04-30 17:02:00,
2013-04-30 10:12:00,30.0,15.0,-100.00,NNW,327,3.0,10.0,54,-99.99,,,0.00,204.000000,,2013-04-30 17:12:00,
2013-04-30 10:22:00,30.0,15.0,-100.00,NNW,327,3.0,10.0,54,-99.99,,,0.00,204.000000,,2013-04-30 17:22:00,
2013-04-30 10:52:00,34.0,16.0,-100.00,NW,326,4.0,15.0,47,-99.99,,,0.00,462.000000,,2013-04-30 17:52:00,
2013-04-30 11:01:00,34.0,16.0,-100.00,NW,326,4.0,15.0,47,-99.99,,,0.00,462.000000,,2013-04-30 18:01:00,
2013-04-30 11:11:00,34.0,16.0,-100.00,NW,326,4.0,15.0,47,-99.99,,,0.00,462.000000,,2013-04-30 18:11:00,
2013-04-30 11:22:00,34.0,16.0,-100.00,NW,326,4.0,15.0,47,-99.99,,,0.00,462.000000,,2013-04-30 18:22:00,
2013-04-30 11:32:00,34.0,16.0,-100.00,NW,326,4.0,15.0,47,-99.99,,,0.00,462.000000,,2013-04-30 18:32:00,
2013-04-30 11:52:00,36.0,23.0,-100.00,NNW,327,4.0,10.0,59,0.00,,,0.00,635.000000,,2013-04-30 18:52:00,
2013-04-30 12:01:00,36.0,23.0,-100.00,NNW,327,4.0,10.0,59,0.00,,,0.00,635.000000,,2013-04-30 19:01:00,
2013-04-30 12:11:00,36.0,23.0,-100.00,NNW,327,4.0,10.0,59,0.00,,,0.00,635.000000,,2013-04-30 19:11:00,
2013-04-30 12:21:00,36.0,23.0,-100.00,NNW,327,4.0,10.0,59,0.00,,,0.00,635.000000,,2013-04-30 19:21:00,
2013-04-30 12:31:00,36.0,23.0,-100.00,NNW,327,4.0,10.0,59,0.00,,,0.00,635.000000,,2013-04-30 19:31:00,
2013-04-30 12:52:00,37.0,16.0,-100.00,NNW,327,4.0,11.0,42,0.00,,,0.00,725.000000,,2013-04-30 19:52:00,
2013-04-30 13:02:00,37.0,16.0,-100.00,NNW,327,4.0,11.0,42,0.00,,,0.00,725.000000,,2013-04-30 20:02:00,
2013-04-30 13:11:00,37.0,16.0,-100.00,NNW,327,4.0,11.0,42,0.00,,,0.00,725.000000,,2013-04-30 20:11:00,
2013-04-30 13:21:00,37.0,16.0,-100.00,NNW,327,4.0,11.0,42,0.00,,,0.00,725.000000,,2013-04-30 20:21:00,
2013-04-30 13:32:00,37.0,16.0,-100.00,NNW,327,4.0,11.0,42,0.00,,,0.00,725.000000,,2013-04-30 20:32:00,
2013-04-30 13:52:00,36.0,16.0,-100.00,NNW,327,5.0,14.0,43,0.00,,,0.00,562.000000,,2013-04-30 20:52:00,
2013-04-30 14:01:00,36.0,16.0,-100.00,NNW,327,5.0,14.0,43,0.00,,,0.00,562.000000,,2013-04-30 21:01:00,
2013-04-30 14:53:00,41.0,13.0,-100.00,NNW,327,5.0,14.0,32,0.00,,,0.00,844.000000,,2013-04-30 21:53:00,
2013-04-30 15:02:00,41.0,13.0,-100.00,NNW,327,5.0,14.0,32,0.00,,,0.00,844.000000,,2013-04-30 22:02:00,
2013-04-30 15:53:00,42.0,10.0,-100.00,NNW,327,6.0,12.0,27,0.00,,,0.00,784.000000,,2013-04-30 22:53:00,
2013-04-30 16:02:00,42.0,10.0,-100.00,NNW,327,6.0,12.0,27,0.00,,,0.00,784.000000,,2013-04-30 23:02:00,
2013-04-30 16:52:00,43.0,10.0,-100.00,NW,326,6.0,16.0,25,0.00,,,0.00,709.000000,,2013-04-30 23:52:00,
2013-04-30 17:01:00,43.0,10.0,-100.00,NW,326,6.0,16.0,25,0.00,,,0.00,709.000000,,2013-05-01 00:01:00,
2013-04-30 17:52:00,42.0,11.0,-100.00,NNW,328,5.0,13.0,28,0.00,,,0.00,530.000000,,2013-05-01 00:52:00,
2013-04-30 18:11:00,42.0,11.0,-100.00,NNW,328,5.0,13.0,28,0.00,,,0.00,530.000000,,2013-05-01 01:11:00,
2013-04-30 18:21:00,42.0,11.0,-100.00,NNW,328,5.0,13.0,28,0.00,,,0.00,530.000000,,2013-05-01 01:21:00,
2013-04-30 18:52:00,39.0,12.0,-100.00,NNW,327,5.0,12.0,32,0.00,,,-99.99,350.000000,,2013-05-01 01:52:00,
2013-04-30 19:02:00,39.0,12.0,-100.00,NNW,327,5.0,12.0,32,0.00,,,-99.99,350.000000,,2013-05-01 02:02:00,
2013-04-30 19:52:00,34.0,14.0,-100.00,NNW,327,2.0,16.0,43,0.00,,,0.00,103.000000,,2013-05-01 02:52:00,
2013-04-30 20:01:00,34.0,14.0,-100.00,NNW,327,2.0,16.0,43,0.00,,,0.00,103.000000,,2013-05-01 03:01:00,
2013-04-30 20:53:00,31.0,15.0,-100.00,NNW,327,2.0,9.0,50,-99.99,,,-99.99,10.000000,,2013-05-01 03:53:00,
2013-04-30 21:03:00,31.0,15.0,-100.00,NNW,327,2.0,9.0,50,-99.99,,,-99.99,10.000000,,2013-05-01 04:03:00,
2013-04-30 21:22:00,31.0,15.0,-100.00,NNW,327,2.0,9.0,50,-99.99,,,-99.99,10.000000,,2013-05-01 04:22:00,
2013-04-30 21:32:00,31.0,15.0,-100.00,NNW,327,2.0,9.0,50,-99.99,,,-99.99,10.000000,,2013-05-01 04:32:00,
2013-04-30 21:52:00,28.0,15.0,-100.00,NNW,327,0.0,5.0,58,0.00,,,-99.99,0.000000,,2013-05-01 04:52:00,
2013-04-30 22:02:00,28.0,15.0,-100.00,NNW,327,0.0,5.0,58,0.00,,,-99.99,0.000000,,2013-05-01 05:02:00,
2013-04-30 22:11:00,28.0,15.0,-100.00,NNW,327,0.0,5.0,58,0.00,,,-99.99,0.000000,,2013-05-01 05:11:00,
2013-04-30 22:52:00,27.0,16.0,-100.00,NNW,327,0.0,5.0,64,0.00,,,0.00,0.000000,,2013-05-01 05:52:00,
2013-04-30 23:02:00,27.0,16.0,-100.00,NNW,327,0.0,5.0,64,0.00,,,0.00,0.000000,,2013-05-01 06:02:00,
2013-04-30 23:11:00,27.0,16.0,-100.00,NNW,327,0.0,5.0,64,0.00,,,0.00,0.000000,,2013-05-01 06:11:00,
2013-04-30 23:22:00,27.0,16.0,-100.00,NNW,327,0.0,5.0,64,0.00,,,0.00,0.000000,,2013-05-01 06:22:00,
2013-04-30 23:32:00,27.0,16.0,-100.00,NNW,327,0.0,5.0,64,0.00,,,0.00,0.000000,,2013-05-01 06:32:00,
2013-04-30 23:52:00,28.0,14.0,-100.00,NNW,327,2.0,6.0,56,0.00,,,0.00,0.000000,,2013-05-01 06:52:00,